Regional Weather Roundup
Issued by NWS

Home | Current Version | Previous Version | Graphics & Text | Print | Product List | Glossary On
Versions: 1 2 3 4 5 6 7 8 9 10 11 12 13 14 15 16 17 18 19 20 21 22 23 24 25 26 27 28 29 30 31 32 33 34 35 36 37 38 39 40 41 42 43 44 45 46 47 48 49 50
000
ASUS43 KDMX 200607
RWRIA

WEATHER ROUNDUP FOR IOWA
NATIONAL WEATHER SERVICE DES MOINES IA
100 AM CDT SAT SEP 20 2014

NOTE: "FAIR" INDICATES FEW OR NO CLOUDS BELOW 12,000 FEET WITH NO
SIGNIFICANT WEATHER AND/OR OBSTRUCTIONS TO VISIBILITY.

* - THESE STATIONS ARE NOT NWS STATIONS...THUS NOT UNDER NWS
QUALITY CONTROL.  THEY ALSO DO NOT REPORT WEATHER SUCH
AS PRECIPITATION OR FOG.

IAZ001>003-012>014-020>022-031>034-043>046-200700-
   NORTHWEST IOWA

CITY           SKY/WX    TMP DP  RH WIND       PRES   REMARKS
CARROLL *      CLEAR     72  68  88 SW14G25   29.79S
CHEROKEE *     TSTM      66  65  97 S9        29.77F
DENISON *      MOCLDY    72  70  94 S14       29.77S
LE MARS *        N/A     66  64  94 SW5       29.78R
ORANGE CITY *  CLEAR     68  64  88 SW3       29.77R
SHELDON *      CLOUDY    68  66  94 S5        29.77R
SIOUX CITY     TSTM      66  65  96 S12       29.78F
6HR MIN TEMP:  66; 6HR MAX TEMP:  84; 6HR PCP:  0.69;

SPENCER        CLOUDY    67  63  87 S9        29.77F
6HR MIN TEMP:  65; 6HR MAX TEMP:  77; 6HR PCP:  1.67;

$$

IAZ055>058-069>071-079>083-090>094-200700-
   SOUTHWEST IOWA

CITY           SKY/WX    TMP DP  RH WIND       PRES   REMARKS
ATLANTIC *     CLEAR     70  68  94 S16       29.81F
AUDUBON *      CLEAR     70  63  78 S13G25    29.82S
CLARINDA *     CLEAR     70  68  94 S12       29.88S
COUNCIL BLFS *   N/A     70  70 100 S12G20    29.81S
CRESTON *      CLEAR     68  68 100 S16G23    29.87F
HARLAN  *      CLEAR     70  68  94 S13G21    29.83F
LAMONI         CLEAR     68  66  93 S13       29.90R
6HR MIN TEMP:  68; 6HR MAX TEMP:  72;

RED OAK *      CLEAR     70  68  94 S10       29.85S
SHENANDOAH *     N/A     70  68  94 S12       29.86S
$$

IAZ047>049-059>061-072>074-084-200700-
   CENTRAL IOWA

CITY           SKY/WX    TMP DP  RH WIND       PRES   REMARKS
AMES           CLOUDY    69  67  93 S10       29.82F
6HR MIN TEMP:  68; 6HR MAX TEMP:  74;

ANKENY *       CLEAR     72  68  88 S13G18    29.83F
CHARITON *     CLEAR     70  66  88 SW14G21   29.88R
DES MOINES     CLOUDY    72  66  81 SW15      29.83S
6HR MIN TEMP:  70; 6HR MAX TEMP:  76;

GRINNELL*      CLOUDY    66  63  90 S9        29.87S
KNOXVILLE *    CLEAR     68  64  88 SW13      29.86R
MARSHALLTOWN   CLOUDY    68  65  90 S14       29.83F
6HR MIN TEMP:  67; 6HR MAX TEMP:  73;

PELLA *        MOCLDY    68  64  87 S10       29.88S
PERRY *          N/A     70  66  88 S12       29.81F
$$

IAZ004>006-015-016-023>025-035-036-200700-
   NORTH CENTRAL IOWA

CITY           SKY/WX    TMP DP  RH WIND       PRES   REMARKS
ALGONA *       CLOUDY    66  66 100 S14       29.78F
CLARION *      HVY RAIN  64  64 100 W10G28    29.87R
ESTHERVILLE    CLOUDY    66  64  93 SW10      29.76R
6HR MIN TEMP:  66; 6HR MAX TEMP:  79; 6HR PCP:  0.19;

FORT DODGE *   CLOUDY    64  61  88 CALM      29.87R THUNDER
MASON CITY     LGT RAIN  69  66  90 SW20      29.84S
6HR MIN TEMP:  69; 6HR MAX TEMP:  75; 6HR PCP:  0.01;

FOREST CITY *  LGT RAIN  68  68 100 SW10G21   29.82F
IOWA FALLS *   MOCLDY    68  66  94 S15       29.83F
$$

IAZ007>011-017>019-026>030-037>042-050>054-066-200700-
   NORTHEAST IOWA

CITY           SKY/WX    TMP DP  RH WIND       PRES   REMARKS
CEDAR RAPIDS   PTCLDY    63  61  93 S10       29.87R
6HR MIN TEMP:  63; 6HR MAX TEMP:  71;

CHARLES CITY * CLOUDY    68  64  88 S9        29.83R
CLINTON *      CLEAR     64  55  72 SW9       29.93R
DECORAH *      MOCLDY    66  63  88 SW12G23   29.79F
DUBUQUE        PTCLDY    63  57  81 S17       29.88R
6HR MIN TEMP:  63; 6HR MAX TEMP:  69;

MONTICELLO *   CLEAR     64  59  82 S6        29.88R
OELWEIN *      MOCLDY    64  63  94 S10       29.85S
WATERLOO       CLOUDY    67  63  87 S16       29.82S
6HR MIN TEMP:  67; 6HR MAX TEMP:  72;

$$

IAZ064-065-067-068-078-200700-
   EAST CENTRAL IOWA

CITY           SKY/WX    TMP DP  RH WIND       PRES   REMARKS
DAVENPORT      CLEAR     66  55  67 S13       29.91R
6HR MIN TEMP:  66; 6HR MAX TEMP:  70;

IOWA CITY      PTCLDY    65  60  84 S6        29.90R
6HR MIN TEMP:  64; 6HR MAX TEMP:  71;

MT. PLEASANT * CLEAR     65  58  77 S8        29.91R
MUSCATINE *    CLEAR     66  59  77 S8        29.90R
QUAD CITIES    CLEAR     66  56  70 S8        29.90S
6HR MIN TEMP:  66; 6HR MAX TEMP:  71;

$$

IAZ062-063-075>077-085>089-095>099-200700-
   SOUTHEAST IOWA

CITY           SKY/WX    TMP DP  RH WIND       PRES   REMARKS
BURLINGTON     CLEAR     65  59  81 S9        29.91F
6HR MIN TEMP:  64; 6HR MAX TEMP:  68;

FAIRFIELD *    CLEAR     66  61  82 S9        29.91R
FORT MADISON * CLEAR     64  61  88 S7        29.92S
KEOKUK *       CLEAR     66  59  77 S12       29.91F
OSKALOOSA *      N/A     67  63  89 S10       29.89R
CENTERVILLE *  CLEAR     66  64  94 S8        29.92R
OTTUMWA        PTCLDY    66  62  87 S12       29.89R
6HR MIN TEMP:  66; 6HR MAX TEMP:  72;

WASHINGTON *   CLEAR     66  63  88 SW12      29.90R
$$

ABBREVIATIONS USED IN REMARKS
   TC - TEMPERATURES IN CELSIUS
  WCI - WIND CHILL INDEX
   HX - HEAT INDEX
  VSB - VISIBILITY
$$



USA.gov is the U.S. government's official web portal to all federal, state and local government web resources and services.